Yankton, SD

9:07 PM CST on December 10, 2019 (GMT -0600)
Gurney Municipal

Weather History for KYKN - November, 2019

Change the Weather History Date:

Sunday, November 17, 2019

  Actual Average Record
Temperature  
Mean Temperature 38 °F -  
Max Temperature 43 °F 45 °F 74 °F (1954)
Min Temperature 32 °F 23 °F -4 °F (1959)
Degree Days  
Heating Degree Days 28    
Moisture  
Dew Point 35 °F    
Average Humidity 84    
Maximum Humidity 96    
Minimum Humidity 70    
Precipitation  
Precipitation 0.00 in - - ()
Sea Level Pressure  
Sea Level Pressure 30.02 in    
Wind  
Wind Speed 10 mph (WNW)    
Max Wind Speed 16 mph    
Max Gust Speed -    
Visibility 10 miles    
Events Rain    
Averages and records for this station are not official NWS values.
T = Trace of Precipitation, MM = Missing Value Source: NWS Daily Summary

Daily Weather History Graph

Daily Weather History Graph

Search for Another Location

Airport or City:

Astronomy

Nov. 17, 2019 Rise Set
Actual Time 7:24 AM CST 5:04 PM CST
Civil Twilight 6:53 AM CST 5:35 PM CST
Nautical Twilight 6:18 AM CST 6:09 PM CST
Astronomical Twilight 5:45 AM CST 6:43 PM CST
Moon 9:40 PM CST (11/17) 12:12 PM CST (11/17)
Length of Visible Light 10h 41m
Length of Day
9h 40m
Waning Gibbous, 73% of the Moon is Illuminated
Nov 17
Waning Gibbous
Nov 19
Last Quarter
Nov 26
New
Dec 4
First Quarter
Dec 11
Full

Hourly Weather History & Observations

Time (CST) Temp. Windchill Dew Point Humidity Pressure Visibility Wind Dir Wind Speed Gust Speed Precip Events Conditions
12:56 AM 43.0 °F 36.8 °F 39.0 °F 86% 30.07 in 10.0 mi NW 11.5 mph - N/A   Overcast
1:56 AM 42.1 °F 36.6 °F 39.0 °F 89% 30.07 in 10.0 mi WNW 9.2 mph - N/A   Overcast
2:56 AM 42.1 °F 36.1 °F 37.9 °F 85% 30.07 in 10.0 mi West 10.4 mph - N/A   Overcast
3:56 AM 42.1 °F 36.1 °F 37.9 °F 85% 30.07 in 10.0 mi West 10.4 mph - N/A   Overcast
4:56 AM 43.0 °F 36.8 °F 37.9 °F 82% 30.06 in 10.0 mi West 11.5 mph - N/A   Overcast
5:56 AM 42.1 °F 35.7 °F 37.0 °F 82% 30.06 in 10.0 mi WNW 11.5 mph - N/A   Overcast
6:56 AM 39.9 °F 32.9 °F 36.0 °F 86% 30.07 in 10.0 mi WNW 11.5 mph - N/A   Overcast
7:56 AM 39.9 °F 32.5 °F 36.0 °F 86% 30.09 in 10.0 mi WNW 12.7 mph - N/A   Overcast
8:56 AM 39.0 °F 31.0 °F 35.1 °F 86% 30.09 in 10.0 mi WNW 13.8 mph - N/A   Clear
9:51 AM 39.2 °F 31.2 °F 35.6 °F 87% 30.03 in 10.0 mi NW 13.8 mph - N/A   Mostly Cloudy
9:56 AM 39.9 °F 31.8 °F 35.1 °F 83% 30.09 in 10.0 mi WNW 15.0 mph - N/A   Mostly Cloudy
10:56 AM 42.1 °F 35.7 °F 35.1 °F 76% 30.09 in 10.0 mi NW 11.5 mph - N/A   Overcast
11:56 AM 42.1 °F 34.5 °F 35.1 °F 76% 30.07 in 10.0 mi WNW 15.0 mph - N/A   Overcast
12:56 PM 43.0 °F 36.4 °F 34.0 °F 71% 30.06 in 10.0 mi NW 12.7 mph - N/A   Overcast
1:56 PM 43.0 °F 35.4 °F 35.1 °F 74% 30.04 in 10.0 mi WNW 16.1 mph - N/A   Overcast
2:56 PM 43.0 °F 36.8 °F 34.0 °F 71% 30.03 in 10.0 mi WNW 11.5 mph - N/A   Mostly Cloudy
3:15 PM 42.8 °F 38.6 °F 33.8 °F 70% 29.95 in 10.0 mi WNW 6.9 mph - N/A   Scattered Clouds
4:56 PM 41.0 °F 39.0 °F 34.0 °F 76% 30.00 in 10.0 mi West 3.5 mph - N/A   Clear
5:56 PM 37.0 °F - 33.1 °F 86% 29.99 in 10.0 mi Calm Calm - N/A   Clear
6:56 PM 35.1 °F - 32.0 °F 89% 29.98 in 10.0 mi Calm Calm - N/A   Clear
7:56 PM 35.1 °F 32.2 °F 32.0 °F 89% 29.96 in 10.0 mi ESE 3.5 mph - N/A   Clear
8:56 PM 33.1 °F 30.0 °F 30.9 °F 92% 29.94 in 10.0 mi SE 3.5 mph - N/A   Clear
9:56 PM 33.1 °F 27.7 °F 30.9 °F 92% 29.92 in 10.0 mi SE 5.8 mph - 0.00 in Rain Light Rain
10:56 PM 32.0 °F 26.4 °F 30.9 °F 96% 29.90 in 10.0 mi East 5.8 mph - N/A   Clear
11:56 PM 32.0 °F 26.4 °F 30.9 °F 96% 29.87 in 10.0 mi East 5.8 mph - N/A   Clear